Showing default

HULIANWANG DIGUI-184, 100209

Orbit data source: Space-Track

HULIANWANG DIGUI-184, 100209 is a payload satellite owned by Zhongguo Xingwang (CN) in LEO that was launched on Tue, 04 Aug 2026 UTC launched from the Wenchang Satellite Launch Center (WSC). Payload-class satellites include a variety of spacecraft equipped with specific instruments for various scientific and technological missions. These include communications satellites like Starlink; space stations such as the ISS; scientific satellites like the Hubble; Earth observation satellites from companies like Planet Labs, Umbra, and HawkEye 360; GPS; miniature CubeSats for education and research; and military/defense satellites.

Loading next visibility...
Identifier
100209, 2026-176G
Orbit
LEO
Country
Flag of CNCN / PRC
Related business
Manufacturer
CAST?
Mission
Operational spacecraft
Bus & Motor
XINGWANG C, Unknown motor
Mass
~700 kg wet, ~700 kg dry
Launch date (UTC)
2026-08-04 (2 months ago)
Launch vehicle
Unknown
Launch site
Wenchang Satellite Launch Center (WSC)
Object type
Payload
Rocket body
Debris
Shape & HBR
BOX + 2 PAN, 14.5 m
Radar Cross Section
Large (>1 m²)

Expand to show TLE details & history
Last TLE update: 12 hours ago

TLE from 12 hours ago
0 HULIANWANG DIGUI-184
1 A0209U 26176G   26263.59456092 -.00000092  00000-0  68213-4 0  9998
2 A0209  49.9966 223.4983 0000292  26.6958 333.3929 13.29328160  6313
Epoch: 2026-09-20T14:16Z
TLE epoch observation values (Epoch: 2026-09-20T14:16:10.063Z)
Latitude
-0.00002°
Longitude
9.96986°
Altitude
1,149.608 km
Speed
7.279 km/s
True Right ascension
14h 53m 59s
True Declination
0° 00' 00"
Sunlit
Object was in daylight at epoch
Visualization orbit readout
Latitude
Unknown
Longitude
Unknown
Altitude
Unknown
Speed
Unknown
Apparent Right ascension
Unknown
Apparent Declination
Unknown
Sunlit
N/A
Visualization observer readout
Local Sidereal Time
19:11:12
Azimuth
Unknown
Elevation
Unknown
Doppler factor
Unknown
Orbital elements
Apogee altitude
1,150.224 km
Perigee altitude
1,149.784 km
Semi-major axis
7,528.141 km
Eccentricity
0.00003
Inclination
49.9966°
RAAN
223.4983°
Arg. of periapsis
26.6958°
True anomaly
333.3914°
Mean anomaly
333.3929°
Eccentric anomaly
333.39215°
Mean motion
3.32286 °/min
Orbital period
108.34 mins
BSTAR
0.000068213
Loading maneuver chart data...
Computing Atmospheric mass density...
Loading historical data...
Loading historical data...
Loading historical data...
Loading historical data...
Loading historical data...
Loading historical data...
Loading historical data...

Documentation

Showing up to 5 results
|